Flag for Greece Weather past 2 weeks in Glyfada, Greece

Now
82 °F

Sunny.


Feels Like: 86 °F
Forecast: 74 / 96 °F
Wind: 6 mph from East

Location: Eleftherios Venizelos International Airport

Current Time: Aug 23, 2014 at 9:04:29 PM

Latest Report: Aug 23, 2014 at 8:20 PM


Visibility: 10 mi

Pressure: 29.89 "Hg

Humidity: 66%

Dew point: 70 °F

Location of GlyfadaLocation

Historic Weather in Glyfada — Graph

°F

Glyfada temperature yesterday

Maximum temperature yesterday: 93 °F (at 1:20 PM)
Minimum temperature yesterday: 68 °F (at 5:50 AM)
Average temperature yesterday: 83 °F

Past Weeks' High & Low Weather Summary

 TemperatureHumidityPressure
High97 °F (Aug 15, 3:20 PM)88% (Aug 23, 6:20 AM)30.04 "Hg (Aug 23, 6:20 AM)
Low64 °F (Aug 9, 5:50 AM)17% (Aug 16, 10:50 AM)29.71 "Hg (Aug 17, 12:20 PM)
Average82 °F46%29.89 "Hg
* Reported Aug 8 7:20 PM — Aug 23 7:50 PM, Glyfada, Weather by CustomWeather, © 2014

Note: Actual official high and low records may vary slightly from our data, if they occured in-between our weather recording intervals... More about our weather records

Advertising

Glyfada weather history for previous 24 hours

 ConditionsComfort  
Time TempWeatherWind HumidityBarometerVisibility
7:50 PM
Aug 23
84 °FPassing clouds.6 mph55%29.89 "HgN/A
7:20 PM86 °FPassing clouds.6 mph52%29.89 "HgN/A
6:50 PM88 °FSunny.6 mph43%29.89 "Hg10 mi
6:20 PM88 °FSunny.8 mph46%29.89 "Hg10 mi
5:50 PM90 °FPassing clouds.6 mph43%29.89 "HgN/A
5:20 PM91 °FSunny.8 mph41%29.89 "Hg10 mi
4:50 PM93 °FSunny.8 mph34%29.89 "Hg10 mi
4:20 PM93 °FSunny.7 mph32%29.89 "Hg10 mi
3:50 PM93 °FPassing clouds.7 mph34%29.89 "HgN/A
3:20 PM93 °FPassing clouds.8 mph32%29.92 "HgN/A
2:50 PM95 °FPassing clouds.9 mph30%29.92 "HgN/A
2:20 PM93 °FPassing clouds.8 mph28%29.92 "HgN/A
1:50 PM91 °FSunny.9 mph32%29.92 "Hg10 mi
1:20 PM91 °FPassing clouds.10 mph36%29.92 "HgN/A
12:50 PM90 °FSunny.9 mph36%29.95 "Hg10 mi
12:20 PM88 °FSunny.12 mph46%29.95 "Hg10 mi
11:50 AM88 °FPassing clouds.7 mph46%29.95 "HgN/A
11:20 AM86 °FPassing clouds.8 mph49%29.95 "HgN/A
10:50 AM86 °FPassing clouds.8 mph52%29.95 "HgN/A
10:20 AM84 °FPassing clouds.8 mph55%29.95 "HgN/A
9:50 AM84 °FSunny.3 mph55%29.95 "Hg10 mi
9:20 AM81 °FSunny.3 mph62%29.95 "Hg10 mi
8:50 AM79 °FSunny.No wind65%29.95 "Hg10 mi
8:20 AM77 °FSunny.No wind74%29.95 "Hg10 mi
7:50 AM73 °FSunny.No wind78%29.95 "Hg10 mi
7:20 AM75 °FClear.2 mph74%29.92 "Hg10 mi
6:50 AM73 °FClear.2 mph74%29.92 "Hg10 mi
6:20 AM72 °FClear.3 mph88%29.92 "Hg10 mi
4:50 AM72 °FClear.No wind83%29.92 "Hg10 mi
4:20 AM70 °FClear.2 mph78%29.92 "Hg10 mi
3:50 AM73 °FClear.5 mph74%29.92 "Hg10 mi
2:50 AM75 °FClear.3 mph69%29.92 "Hg10 mi
2:20 AM75 °FClear.2 mph78%29.92 "Hg10 mi
1:50 AM77 °FClear.2 mph74%29.92 "Hg10 mi
1:20 AM79 °FClear.2 mph70%29.92 "Hg10 mi
12:50 AM77 °FClear.No wind69%29.92 "Hg10 mi
12:20 AM79 °FClear.2 mph65%29.92 "Hg10 mi
11:50 PM
Aug 22
79 °FClear.2 mph65%29.92 "Hg10 mi
11:20 PM81 °FClear.3 mph54%29.95 "Hg10 mi
10:50 PM82 °FClear.3 mph51%29.95 "Hg10 mi
10:20 PM82 °FClear.5 mph55%29.95 "Hg10 mi
9:50 PM82 °FClear.2 mph55%29.95 "Hg10 mi
9:20 PM82 °FClear.7 mph58%29.95 "Hg10 mi
Weather by CustomWeather, © 2014

See weather overviewHow to use our weather pages